Location: Newark
(45.9456°N, 15.4064°E)
Time: 21:05:27
(UTC+00:00)

Vanguard 3 - Pass Details

Date: 29 January 2020
Orbit: 508 x 3263 km, 33.3° (Epoch: 22 February)

Event Time Altitude Azimuth Distance (km) Brightness Sun altitude
Rises 17:30:54 0° 257° (WSW) 7,006 13.8 -16.1°
Reaches altitude 10° 17:35:34 10° 253° (WSW) 6,125 12.9 -16.9°
Maximum altitude 17:54:31 54° 184° (S) 3,509 10.3 -20.2°
Enters shadow 18:06:26 20° 119° (ESE) 4,401 10.4 -22.2°
Drops below altitude 10° 18:09:33 10° 113° (ESE) 4,967 - -22.8°
Sets 18:12:53 0° 109° (ESE) 5,662 - -23.4°
